Weather History for KJZI - September, 2013

Change the Weather History Date:

Friday, September 20, 2013

  Actual Average (KCHS) Record (KCHS)
Temperature  
Mean Temperature 74 °F 75 °F  
Max Temperature 82 °F 84 °F 98 °F (1942)
Min Temperature 66 °F 66 °F 53 °F (1981)
Degree Days  
Heating Degree Days 0 0  
Month to date heating degree days 0  
Since 1 July heating degree days 0  
Cooling Degree Days 9 10  
Month to date cooling degree days 247  
Year to date cooling degree days 2052  
Growing Degree Days 24 (Base 50)    
Moisture  
Dew Point 65 °F    
Average Humidity 72    
Maximum Humidity 94    
Minimum Humidity 51    
Precipitation  
Precipitation 0.00 in 0.17 in 5.18 in (1979)
Month to date precipitation 4.39  
Year to date precipitation 40.03  
Sea Level Pressure  
Sea Level Pressure 30.04 in    
Wind  
Wind Speed 1 mph (ESE)    
Max Wind Speed 9 mph    
Max Gust Speed -    
Visibility 10 miles    
Events      
T = Trace of Precipitation, MM = Missing Value Source: NWS Daily Summary

Daily Weather History Graph

Daily Weather History Graph

Search for Another Location

Airport or City:

Trip Planner

Search our weather history database for the weather conditions in past years. The results will help you decide how hot, cold, wet, or windy it might be!

Date:

Astronomy

Sep. 20, 2013 Rise Set
Actual Time 7:07 AM EDT 7:19 PM EDT
Civil Twilight 6:42 AM EDT 7:43 PM EDT
Nautical Twilight 6:13 AM EDT 8:12 PM EDT
Astronomical Twilight 5:44 AM EDT 8:41 PM EDT
Moon 7:59 PM EDT (9/20) 8:13 AM EDT (9/20)
Length of Visible Light 13h 01m
Length of Day
12h 12m
Full, 98% of the Moon is Illuminated
Sep 20
Full
Sep 26
Last Quarter
Oct 4
New
Oct 11
First Quarter
Oct 18
Full

Hourly Weather History & Observations

Time (EDT) Temp. Heat Index Dew Point Humidity Pressure Visibility Wind Dir Wind Speed Gust Speed Precip Events Conditions
12:15 AM 69.8 °F - 64.4 °F 83% 30.09 in 10.0 mi Calm Calm - 0.00 in   Clear
12:35 AM 68.0 °F - 64.4 °F 88% 30.08 in 10.0 mi Calm Calm - 0.00 in   Clear
12:55 AM 68.0 °F - 64.4 °F 88% 30.08 in 10.0 mi Calm Calm - 0.00 in   Clear
1:15 AM 68.0 °F - 64.4 °F 88% 30.08 in 10.0 mi Calm Calm - 0.00 in   Clear
1:35 AM 68.0 °F - 64.4 °F 88% 30.08 in 10.0 mi Calm Calm - 0.00 in   Clear
1:55 AM 68.0 °F - 64.4 °F 88% 30.08 in 10.0 mi Calm Calm - 0.00 in   Clear
2:15 AM 66.2 °F - 64.4 °F 94% 30.09 in 10.0 mi Calm Calm - 0.00 in   Clear
2:35 AM 66.2 °F - 64.4 °F 94% 30.09 in 10.0 mi Calm Calm - 0.00 in   Clear
2:55 AM 66.2 °F - 64.4 °F 94% 30.09 in 10.0 mi Calm Calm - 0.00 in   Clear
3:15 AM 68.0 °F - 64.4 °F 88% 30.09 in 10.0 mi Calm Calm - 0.00 in   Clear
3:35 AM 68.0 °F - 64.4 °F 88% 30.09 in 10.0 mi Calm Calm - 0.00 in   Clear
3:55 AM 66.2 °F - 64.4 °F 94% 30.08 in 10.0 mi Calm Calm - 0.00 in   Clear
4:15 AM 66.2 °F - 62.6 °F 88% 30.08 in 10.0 mi Calm Calm - 0.00 in   Clear
4:35 AM 68.0 °F - 64.4 °F 88% 30.08 in 10.0 mi Calm Calm - 0.00 in   Clear
4:55 AM 66.2 °F - 62.6 °F 88% 30.08 in 10.0 mi Calm Calm - 0.00 in   Clear
5:15 AM 66.2 °F - 64.4 °F 94% 30.08 in 10.0 mi Calm Calm - 0.00 in   Clear
5:35 AM 68.0 °F - 64.4 °F 88% 30.08 in 10.0 mi Calm Calm - 0.00 in   Clear
5:55 AM 68.0 °F - 66.2 °F 94% 30.08 in 10.0 mi Calm Calm - 0.00 in   Clear
6:15 AM 68.0 °F - 64.4 °F 88% 30.08 in 10.0 mi Calm Calm - 0.00 in   Clear
6:35 AM 68.0 °F - 66.2 °F 94% 30.07 in 10.0 mi Calm Calm - 0.00 in   Clear
6:55 AM 66.2 °F - 62.6 °F 88% 30.08 in 10.0 mi Calm Calm - 0.00 in   Clear
7:15 AM 66.2 °F - 64.4 °F 94% 30.09 in 9.0 mi Calm Calm - 0.00 in   Clear
7:35 AM 66.2 °F - 64.4 °F 94% 30.09 in 9.0 mi Calm Calm - 0.00 in   Clear
7:55 AM 69.8 °F - 66.2 °F 88% 30.09 in 10.0 mi Calm Calm - 0.00 in   Clear
8:15 AM 73.4 °F - 68.0 °F 83% 30.09 in 10.0 mi Calm Calm - 0.00 in   Clear
8:35 AM 75.2 °F - 69.8 °F 83% 30.09 in 10.0 mi Calm Calm - 0.00 in   Clear
8:55 AM 77.0 °F - 69.8 °F 78% 30.09 in 10.0 mi Calm Calm - 0.00 in   Clear
9:15 AM 77.0 °F - 66.2 °F 69% 30.09 in 10.0 mi Calm Calm - 0.00 in   Clear
9:35 AM 80.6 °F 82.7 °F 66.2 °F 61% 30.10 in 10.0 mi Calm Calm - 0.00 in   Clear
9:55 AM 78.8 °F - 66.2 °F 65% 30.10 in 10.0 mi North 3.5 mph - 0.00 in   Clear
10:15 AM 80.6 °F 82.7 °F 66.2 °F 61% 30.10 in 10.0 mi NE 3.5 mph - 0.00 in   Partly Cloudy
10:35 AM 80.6 °F 82.3 °F 64.4 °F 58% 30.10 in 10.0 mi North 5.8 mph - 0.00 in   Clear
10:55 AM 80.6 °F 82.3 °F 64.4 °F 58% 30.09 in 10.0 mi NNE 5.8 mph - 0.00 in   Clear
11:15 AM 82.4 °F 83.9 °F 64.4 °F 54% 30.09 in 10.0 mi Calm Calm - 0.00 in   Clear
11:35 AM 82.4 °F 83.9 °F 64.4 °F 54% 30.08 in 10.0 mi ENE 4.6 mph - 0.00 in   Clear
11:55 AM 82.4 °F 83.9 °F 64.4 °F 54% 30.08 in 10.0 mi Calm Calm - 0.00 in   Clear
12:15 PM 82.4 °F 83.9 °F 64.4 °F 54% 30.07 in 10.0 mi East 4.6 mph - 0.00 in   Partly Cloudy
12:35 PM 82.4 °F 83.9 °F 64.4 °F 54% 30.06 in 10.0 mi Calm Calm - 0.00 in   Partly Cloudy
12:55 PM 82.4 °F 84.6 °F 66.2 °F 58% 30.06 in 10.0 mi Calm Calm - 0.00 in   Clear
1:15 PM 82.4 °F 84.6 °F 66.2 °F 58% 30.04 in 10.0 mi SSE 5.8 mph - 0.00 in   Partly Cloudy
1:35 PM 82.4 °F 84.6 °F 66.2 °F 58% 30.04 in 10.0 mi ESE 5.8 mph - 0.00 in   Partly Cloudy
1:55 PM 82.4 °F 84.6 °F 66.2 °F 58% 30.04 in 10.0 mi SE 3.5 mph - 0.00 in   Clear
2:15 PM 82.4 °F 84.6 °F 66.2 °F 58% 30.03 in 10.0 mi SE 9.2 mph - 0.00 in   Partly Cloudy
2:35 PM 82.4 °F 84.6 °F 66.2 °F 58% 30.02 in 10.0 mi ESE 6.9 mph - 0.00 in   Mostly Cloudy
2:55 PM 82.4 °F 83.9 °F 64.4 °F 54% 30.01 in 10.0 mi SE 8.1 mph - 0.00 in   Partly Cloudy
3:15 PM 82.4 °F 83.4 °F 62.6 °F 51% 30.01 in 10.0 mi ESE 8.1 mph - 0.00 in   Clear
3:35 PM 82.4 °F 83.4 °F 62.6 °F 51% 30.00 in 10.0 mi East 9.2 mph - 0.00 in   Clear
3:55 PM 82.4 °F 83.4 °F 62.6 °F 51% 29.99 in 10.0 mi ESE 9.2 mph - 0.00 in   Clear
4:15 PM 82.4 °F 83.4 °F 62.6 °F 51% 29.99 in 10.0 mi SE 8.1 mph - 0.00 in   Clear
4:35 PM 80.6 °F 81.8 °F 62.6 °F 54% 29.99 in 10.0 mi SSE 6.9 mph - 0.00 in   Clear
4:55 PM 80.6 °F 81.8 °F 62.6 °F 54% 29.99 in 10.0 mi SSE 5.8 mph - 0.00 in   Clear
5:15 PM 80.6 °F 81.8 °F 62.6 °F 54% 29.99 in 10.0 mi SSE 5.8 mph - 0.00 in   Clear
5:35 PM 80.6 °F 82.3 °F 64.4 °F 58% 29.98 in 10.0 mi SE 8.1 mph - 0.00 in   Clear
5:55 PM 78.8 °F - 62.6 °F 57% 29.98 in 10.0 mi SE 5.8 mph - 0.00 in   Clear
6:15 PM 78.8 °F - 64.4 °F 61% 29.99 in 10.0 mi SE 5.8 mph - 0.00 in   Clear
6:35 PM 77.0 °F - 64.4 °F 65% 29.98 in 10.0 mi SE 4.6 mph - 0.00 in   Clear
6:55 PM 77.0 °F - 64.4 °F 65% 29.98 in 10.0 mi ESE 4.6 mph - 0.00 in   Clear
7:15 PM 75.2 °F - 64.4 °F 69% 29.98 in 10.0 mi Calm Calm - 0.00 in   Clear
7:35 PM 75.2 °F - 64.4 °F 69% 29.97 in 10.0 mi Calm Calm - 0.00 in   Clear
7:55 PM 73.4 °F - 64.4 °F 73% 29.97 in 10.0 mi Calm Calm - 0.00 in   Clear
8:15 PM 75.2 °F - 66.2 °F 73% 29.98 in 10.0 mi Calm Calm - 0.00 in   Clear
8:35 PM 73.4 °F - 66.2 °F 78% 29.99 in 10.0 mi Calm Calm - 0.00 in   Clear
8:55 PM 75.2 °F - 66.2 °F 73% 29.98 in 10.0 mi SSE 4.6 mph - 0.00 in   Clear
9:15 PM 75.2 °F - 66.2 °F 73% 29.99 in 10.0 mi Calm Calm - 0.00 in   Clear
9:35 PM 75.2 °F - 66.2 °F 73% 29.98 in 10.0 mi SE 4.6 mph - 0.00 in   Clear
9:55 PM 75.2 °F - 66.2 °F 73% 29.98 in 10.0 mi Calm Calm - 0.00 in   Clear
10:15 PM 75.2 °F - 66.2 °F 73% 29.98 in 10.0 mi Calm Calm - 0.00 in   Clear
10:35 PM 75.2 °F - 66.2 °F 73% 29.98 in 10.0 mi Calm Calm - 0.00 in   Clear
10:55 PM 75.2 °F - 66.2 °F 73% 29.98 in 10.0 mi Calm Calm - 0.00 in   Clear
11:15 PM 75.2 °F - 66.2 °F 73% 29.97 in 10.0 mi Calm Calm - 0.00 in   Clear
11:35 PM 75.2 °F - 66.2 °F 73% 29.97 in 10.0 mi Calm Calm - 0.00 in   Clear
11:55 PM 73.4 °F - 66.2 °F 78% 29.97 in 10.0 mi Calm Calm - 0.00 in   Clear